Weather History for La Ceiba, Honduras

Change the Weather History Date:

Sunday, October 28, 2012

  Actual Average Record
Temperature  
Mean Temperature 75 °F -  
Max Temperature 85 °F 80 °F 89 °F (1997)
Min Temperature 65 °F 68 °F 65 °F (2012)
Cooling Degree Days 10    
Growing Degree Days 25 (Base 50)    
Moisture  
Dew Point 68 °F    
Average Humidity 75    
Maximum Humidity 94    
Minimum Humidity 48    
Precipitation  
Precipitation 0.00 in 0.70 in - ()
Sea Level Pressure  
Sea Level Pressure 29.92 in    
Wind  
Wind Speed 2 mph ()    
Max Wind Speed 9 mph    
Max Gust Speed -    
Visibility 6.8 miles    
Events Rain    
Averages and records for this station are not official NWS values.
T = Trace of Precipitation, MM = Missing Value Source: Averaged Metar Reports

Daily Weather History Graph

Daily Weather History Graph

Search for Another Location

Airport:

Trip Planner

Search our weather history database for the weather conditions in past years. The results will help you decide how hot, cold, wet, or windy it might be!

Date:

Astronomy

Oct. 28, 2012 Rise Set
Actual Time 5:42 AM CST 5:19 PM CST
Civil Twilight 5:20 AM CST 5:41 PM CST
Nautical Twilight 4:55 AM CST 6:06 PM CST
Astronomical Twilight 4:30 AM CST 6:31 PM CST
Moon 4:35 PM CST 4:39 AM CST
Length of Visible Light 12h 20m
Length of Day
11h 36m
Waxing Gibbous, 99% of the Moon is Illuminated
Oct 28
Waxing Gibbous
Oct 29
Full
Nov 6
Last Quarter
Nov 13
New
Nov 20
First Quarter

Hourly Weather History & Observations

Time (CST) Temp. Heat Index Dew Point Humidity Pressure Visibility Wind Dir Wind Speed Gust Speed Precip Events Conditions
12:00 AM 68 °F - 64 °F 82% 29.91 in 9 mi Calm Calm - -   Haze
12:00 AM 68.0 °F - 66.2 °F 94% 29.89 in 6.2 mi Calm Calm - N/A   Clear
6:00 AM 66 °F - 64 °F 90% 29.90 in 12 mi Calm Calm - -   Haze
6:00 AM 66.2 °F - 64.4 °F 94% 29.89 in 6.2 mi Calm Calm - N/A   Partly Cloudy
7:00 AM 71.6 °F - 68.0 °F 88% 29.92 in 6.2 mi Calm Calm - N/A   Partly Cloudy
8:00 AM 84.2 °F 88.4 °F 69.8 °F 62% 29.95 in 6.2 mi Calm Calm - N/A   Scattered Clouds
9:00 AM 84 °F - 67 °F 48% 29.95 in 12 mi WSW 3.5 mph - -   Haze
9:00 AM 84.2 °F 87.3 °F 68.0 °F 58% 29.95 in 6.2 mi WSW 3.5 mph - N/A   Scattered Clouds
10:00 AM 84.2 °F 87.3 °F 68.0 °F 58% 29.95 in 6.2 mi West 6.9 mph - N/A   Mostly Cloudy
11:00 AM 84.2 °F 88.4 °F 69.8 °F 62% 29.92 in 6.2 mi WNW 9.2 mph - N/A   Mostly Cloudy
12:00 PM 82 °F - 71 °F 63% 29.94 in 6 mi WNW 9.2 mph - -   Haze
12:00 PM 82.4 °F 87.2 °F 71.6 °F 70% 29.92 in 6.2 mi WNW 9.2 mph - N/A   Mostly Cloudy
1:00 PM 78.8 °F - 71.6 °F 78% 29.92 in 6.2 mi NNW 9.2 mph - N/A   Overcast
2:00 PM 78.8 °F - 69.8 °F 74% 29.89 in 6.2 mi Calm Calm - N/A   Overcast
3:00 PM 78 °F - 68 °F 63% 29.90 in 6 mi South 8.1 mph - - Rain Light Drizzle
3:00 PM 77.0 °F - 68.0 °F 74% 29.89 in 6.2 mi South 8.1 mph - N/A   Mostly Cloudy
4:00 PM 77.0 °F - 68.0 °F 74% 29.89 in 6.2 mi SSW 8.1 mph - N/A   Mostly Cloudy
5:00 PM 77.0 °F - 68.0 °F 74% 29.89 in 6.2 mi SW 5.8 mph - N/A   Mostly Cloudy
6:00 PM 76 °F - 68 °F 70% 29.91 in 6 mi SSW 2.3 mph - -   Haze
6:00 PM 75.2 °F - 68.0 °F 78% 29.89 in 6.2 mi SSW 2.3 mph - N/A   Mostly Cloudy
7:00 PM 73.4 °F - 68.0 °F 83% 29.92 in 6.2 mi Calm Calm - N/A   Mostly Cloudy
8:00 PM 71.6 °F - 66.2 °F 83% 29.95 in 6.2 mi Calm Calm - N/A   Mostly Cloudy
9:00 PM 71.6 °F - 68.0 °F 88% 29.95 in 6.2 mi Calm Calm - N/A   Scattered Clouds
10:00 PM 68.0 °F - 64.4 °F 88% 29.95 in 6.2 mi Calm Calm - N/A   Scattered Clouds
11:00 PM 68.0 °F - 64.4 °F 88% 29.95 in 6.2 mi Calm Calm - N/A   Partly Cloudy